Home   Weather   Sisimiut   Past weeks

Flag for Greenland Past Weather in Sisimiut, Greenland — Yesterday and Last 2 Weeks

Now
22 °F

Cold.


Feels Like: 16 °F
Forecast: 24 / 38 °F
Wind: 5 mph from Southeast

Location: Attu Kitsissut

Current Time: Apr 30, 2017 at 5:13:25 am

Latest Report: Apr 30, 2017 at 4:00 am


Visibility: N/A

Pressure: 29.61 "Hg

Humidity: 69%

Dew Point: 13 °F

Location of SisimiutLocation

Past Weather in Sisimiut — Graph

°F

Sisimiut Temperature Yesterday

Maximum temperature yesterday: 23 °F (at 11:00 pm)
Minimum temperature yesterday: 12 °F (at 5:00 am)
Average temperature yesterday: 17 °F

High & Low Weather Summary for the Past Weeks

 TemperatureHumidityPressure
High37 °F (Apr 24, 5:00 pm)99% (Apr 26, 2:00 am)30.45 "Hg (Apr 26, 2:00 am)
Low9 °F (Apr 28, 5:00 am)56% (Apr 20, 1:00 pm)29.18 "Hg (Apr 17, 4:00 pm)
Average20 °F80%29.94 "Hg
* Reported Apr 15 3:00 am — Apr 30 3:00 am, Sisimiut, Weather by CustomWeather, © 2017

Note: Actual official high and low records may vary slightly from our data, if they occured in-between our weather recording intervals... More about our weather records

Advertising

Sisimiut Weather History for the Previous 24 Hours

Scroll right to see more
 ConditionsComfort  
Time TempWeatherWind HumidityBarometerVisibility
3:00 am
Sun, Apr 30
22 °FCold.5 mph66%29.59 "HgN/A
2:00 am22 °FCold.2 mph75%29.56 "HgN/A
1:00 am22 °FCold.10 mph89%29.54 "HgN/A
12:00 am23 °FCold.12 mph74%29.47 "HgN/A
11:00 pm
Sat, Apr 29
23 °FCold.15 mph73%29.47 "HgN/A
10:00 pm22 °FCold.16 mph69%29.44 "HgN/A
9:00 pm22 °FCold.24 mph67%29.41 "HgN/A
8:00 pm22 °FCold.20 mph71%29.44 "HgN/A
7:00 pm22 °FCold.22 mph71%29.44 "HgN/A
5:00 pm21 °FCold.22 mph66%29.47 "HgN/A
3:00 pm19 °FCold.21 mph66%29.54 "HgN/A
2:00 pm18 °FCold.16 mph70%29.58 "HgN/A
1:00 pm18 °FCold.20 mph70%29.62 "HgN/A
12:00 pm17 °FCold.20 mph72%29.65 "HgN/A
10:00 am15 °FCold.14 mph72%29.74 "HgN/A
9:00 am15 °FCold.14 mph74%29.77 "HgN/A
8:00 am14 °FCold.15 mph73%29.80 "HgN/A
7:00 am14 °FCold.13 mph77%29.83 "HgN/A
6:00 am13 °FCold.14 mph77%29.88 "HgN/A
5:00 am12 °FCold.15 mph77%29.91 "HgN/A
Weather by CustomWeather, © 2017

See weather overviewHow to use our weather pages